Wind_Speed
16 16 17 17 19 20 22 23 23 23 24 24 25 26 27 28 29 29 30 30 31 32 32 33 33 35 35 36 36 37 38 41 44 46 48 50 52 53 55 56 57 58 58 58
16 17 18 18 19 20 22 23 23 23 24 25 25 25 26 27 28 29 29 28 29 30 30 31 31 31 32 34 35 37 39 40 43 45 47 49 49 50 52 53 55 57 57 57
17 17 18 19 20 21 22 23 23 23 23 24 25 25 26 26 28 28 28 27 27 28 28 28 30 30 31 32 34 37 38 39 41 42 44 46 47 49 50 52 52 53 53 54
18 18 19 20 21 21 22 22 23 24 24 24 25 25 24 25 26 27 26 25 25 26 27 28 29 29 30 31 33 35 37 37 38 39 42 44 45 46 48 49 49 50 52 53
18 19 19 20 21 22 22 23 23 24 25 25 24 25 25 25 25 25 25 25 25 26 27 28 28 29 30 31 31 32 35 36 37 38 39 42 42 44 45 46 47 48 49 50
19 20 20 21 22 23 23 23 24 24 25 25 24 25 25 25 25 25 24 24 25 26 26 27 27 28 28 29 31 32 33 35 37 38 38 40 42 43 44 45 46 47 47 47
21 22 22 22 22 23 23 24 25 26 26 26 25 25 25 25 25 24 24 24 25 26 26 26 25 26 27 29 30 32 32 33 35 37 37 39 40 42 42 44 45 46 46 46
23 22 23 23 23 23 23 24 25 27 28 27 26 25 24 25 25 25 25 25 25 26 26 26 26 27 27 29 30 31 31 31 32 33 35 37 40 41 42 43 45 46 46 45
24 24 24 24 24 24 24 24 26 27 27 27 26 25 24 24 25 25 25 24 25 26 26 26 26 27 29 30 30 29 29 29 30 31 33 34 35 38 42 43 43 44 45 45
26 26 25 25 25 25 25 25 26 27 28 28 27 26 26 25 25 25 25 25 25 25 26 26 26 27 27 27 28 28 28 28 29 30 32 33 34 35 37 39 41 43 43 43
27 27 26 26 25 25 25 26 27 27 28 28 29 27 27 27 27 26 26 26 27 26 27 26 26 27 28 28 29 29 29 28 28 29 30 31 32 33 34 35 37 38 40 41
28 28 27 26 26 26 26 27 27 27 28 27 28 28 27 27 27 27 27 27 27 27 27 26 26 27 28 29 28 28 29 28 27 27 28 29 30 30 31 32 34 36 37 39
29 29 28 28 27 27 27 27 27 28 28 28 28 27 27 27 27 27 27 27 27 27 27 27 27 28 28 28 27 28 28 28 27 26 26 27 28 30 31 32 33 34 35 36
31 30 29 29 28 28 28 28 28 29 29 29 28 27 26 27 27 27 28 27 26 26 27 27 28 28 27 27 28 27 27 27 26 25 25 25 27 28 29 30 31 32 34 34
31 31 30 29 29 29 29 29 29 29 29 30 28 28 27 27 28 28 28 28 27 27 27 27 28 28 27 28 28 28 28 26 25 25 24 25 26 26 27 28 28 29 31 31
33 32 31 30 30 30 30 29 29 29 29 29 29 27 27 28 28 28 28 28 28 28 28 28 28 28 28 29 29 28 29 28 27 26 25 25 25 24 25 26 27 28 28 29
34 34 33 32 31 32 32 29 29 29 29 29 29 27 28 28 29 29 29 29 29 29 30 30 29 29 29 30 30 30 29 29 28 26 25 24 23 23 24 26 27 28 28 29
35 34 34 34 33 34 32 31 30 30 29 29 29 28 29 29 29 29 30 30 30 30 30 30 30 30 30 31 31 31 30 28 28 26 25 24 24 23 24 25 26 27 28 28
35 34 35 35 35 35 33 31 30 30 30 29 29 30 30 30 29 29 30 31 31 31 31 32 31 31 31 32 32 31 30 29 28 26 25 25 24 24 24 25 25 24 25 25
35 35 35 35 36 36 33 32 31 32 31 30 30 31 31 30 30 30 31 31 32 33 32 33 32 32 33 33 32 31 30 28 28 27 26 26 25 24 23 24 24 24 24 24
36 35 35 35 36 36 33 33 33 33 32 32 31 31 31 31 31 31 32 33 33 33 34 34 33 33 33 33 32 32 30 29 28 27 27 26 26 24 23 23 23 22 22 22
37 37 36 36 36 34 33 33 32 33 33 33 33 32 32 32 32 33 34 34 34 34 35 35 34 33 33 33 32 32 30 28 27 27 27 25 24 23 23 22 21 21 22 22
38 37 36 37 36 35 34 33 33 34 33 33 33 33 33 33 33 34 35 35 35 36 36 36 35 34 34 33 33 32 31 29 28 27 26 25 24 23 23 22 21 21 22 22
38 37 37 37 35 35 34 34 35 35 35 35 34 34 34 35 35 35 36 36 37 37 37 36 36 35 34 33 32 31 30 29 28 27 26 25 24 23 23 22 21 21 21 21
38 38 37 36 35 35 35 35 36 36 35 35 35 35 35 36 36 36 36 37 37 37 37 37 36 35 34 32 32 31 30 29 28 27 26 25 24 24 23 23 22 22 22 22
37 36 36 36 35 36 36 36 37 37 36 35 36 36 36 37 37 37 37 37 37 37 37 37 36 34 33 32 31 31 30 29 28 26 25 24 24 24 23 22 22 21 22 22
Wind_Direction
294 297 300 302 304 305 308 310 308 307 304 302 302 302 301 300 298 295 292 289 286 285 282 279 276 274 272 269 267 265 262 260 258 257 254 251 250 249 249 249 249 249 248 249
293 295 299 302 305 307 309 311 311 310 307 306 306 305 305 305 305 300 295 292 289 285 282 281 279 277 273 271 269 267 264 264 261 259 256 252 251 250 249 249 248 249 248 248
292 295 298 301 305 308 310 312 313 312 312 310 308 308 309 309 309 305 299 296 293 289 286 284 281 279 276 274 272 270 267 267 264 261 257 254 252 251 251 251 249 248 247 248
293 296 298 301 305 308 311 312 314 313 313 315 313 312 313 311 311 309 304 298 295 291 290 288 284 282 280 280 277 274 271 269 265 263 259 255 253 252 253 251 249 248 249 250
292 296 298 301 305 307 310 312 313 313 313 315 317 312 314 315 313 311 308 303 300 296 293 292 289 286 285 283 281 278 274 270 267 265 263 258 256 255 255 253 251 251 251 251
291 294 297 300 303 306 308 311 312 313 314 316 317 316 318 318 315 313 309 304 304 301 298 295 293 289 288 286 284 281 276 272 268 267 266 262 259 257 255 254 253 252 252 253
290 294 297 299 302 305 308 310 313 315 316 318 318 317 321 318 316 313 311 309 308 305 302 301 297 294 292 291 287 284 279 276 270 268 267 265 263 258 255 254 254 254 253 254
288 292 295 297 300 304 307 310 312 315 316 317 318 319 321 318 317 315 314 313 311 309 306 305 304 302 297 294 292 289 284 281 274 270 269 267 265 260 256 255 255 255 254 255
286 289 293 295 298 301 305 308 311 311 313 315 317 318 319 318 316 317 316 314 313 311 310 309 309 308 304 299 296 294 291 285 279 275 271 269 267 261 256 255 255 256 254 254
283 286 290 293 296 299 302 306 309 310 312 314 317 319 319 318 316 317 318 315 314 314 312 310 309 309 307 303 301 298 293 289 286 280 276 272 269 264 259 257 257 257 254 253
280 283 286 290 294 298 301 303 306 307 308 311 313 316 318 317 317 318 318 316 316 314 312 312 310 309 309 308 306 301 297 291 289 284 279 273 268 263 261 259 259 257 256 253
277 280 283 286 290 295 298 302 304 305 306 308 310 313 315 316 316 317 317 317 316 314 315 314 311 311 310 310 308 303 298 294 294 289 282 275 267 264 263 262 260 257 256 254
275 278 281 283 287 291 295 299 301 301 302 305 308 311 314 313 314 314 314 315 315 314 315 315 314 313 312 311 311 309 305 301 298 293 285 278 272 268 265 263 260 258 256 253
273 275 278 283 286 289 292 296 298 299 300 302 305 308 310 309 311 312 313 313 312 312 314 314 314 315 314 314 313 311 309 307 302 295 288 283 277 271 268 266 262 259 256 254
271 273 276 279 282 285 289 293 296 296 298 300 303 306 307 307 309 310 311 311 310 310 313 315 315 314 314 314 313 312 311 308 305 298 291 285 278 274 271 267 263 259 256 254
269 271 273 276 280 283 286 291 294 295 296 298 298 302 304 304 307 308 309 309 309 309 311 314 315 313 313 313 312 312 311 308 306 302 296 290 283 277 272 267 265 262 259 256
268 270 272 275 278 281 285 290 292 294 295 295 296 298 299 300 302 305 307 307 308 309 311 313 314 313 312 311 312 311 310 308 305 304 298 294 288 280 273 270 268 265 262 259
267 270 272 275 278 281 286 288 290 292 293 293 294 296 296 298 301 303 305 306 306 307 309 312 311 311 311 310 310 309 307 307 305 303 300 294 287 284 279 274 270 265 263 261
265 268 272 275 277 281 284 287 289 290 290 291 293 294 295 296 298 301 303 304 305 306 308 309 309 309 309 309 309 307 305 304 303 301 298 295 289 283 280 277 271 264 261 259
264 267 271 275 278 282 285 286 287 288 288 289 291 292 294 294 297 300 301 302 303 306 307 308 307 306 307 307 306 305 303 302 300 298 296 293 289 284 279 275 270 266 264 259
263 266 269 274 277 281 284 286 287 288 290 289 289 291 293 295 298 300 302 302 303 304 305 306 305 304 305 305 305 304 302 299 297 295 294 291 287 283 279 277 273 268 266 262
261 265 268 272 275 280 283 284 285 287 288 289 289 290 292 295 297 299 301 301 302 303 304 304 303 303 303 303 301 301 300 297 294 292 291 289 285 279 276 276 272 270 266 261
261 265 268 270 274 277 279 282 284 285 286 287 288 289 291 294 296 297 298 299 300 301 302 303 301 301 301 300 299 297 296 294 292 291 288 283 281 277 274 272 268 266 264 259
261 263 266 269 271 275 278 281 282 284 285 286 286 288 291 294 295 296 297 298 298 299 300 301 300 299 299 297 296 294 293 292 290 287 285 281 278 275 275 271 266 265 263 258
260 263 265 268 270 273 276 279 281 283 285 286 287 289 291 293 294 295 296 297 298 298 300 300 300 299 298 296 294 292 290 289 287 284 282 278 275 272 270 268 267 268 265 260
259 263 265 267 270 272 275 278 280 282 284 286 287 288 291 293 294 295 296 296 297 298 299 299 299 297 296 295 293 291 288 287 284 282 280 276 273 271 268 266 265 267 266 261
Height
5742 5741 5739 5736 5734 5731 5728 5724 5720 5717 5712 5709 5705 5700 5696 5691 5687 5684 5681 5678 5676 5674 5671 5668 5667 5665 5664 5664 5664 5664 5665 5666 5667 5668 5670 5673 5676 5679 5682 5686 5690 5694 5698 5702
5738 5736 5734 5731 5728 5725 5722 5718 5714 5711 5706 5702 5698 5693 5689 5684 5680 5676 5672 5669 5667 5663 5661 5659 5657 5655 5654 5654 5654 5653 5654 5654 5655 5656 5657 5659 5662 5665 5668 5671 5675 5678 5682 5686
5733 5731 5728 5726 5723 5720 5716 5713 5709 5705 5701 5696 5692 5688 5682 5677 5673 5668 5664 5660 5657 5654 5651 5650 5648 5646 5645 5644 5643 5642 5642 5642 5642 5643 5644 5646 5648 5651 5653 5656 5660 5663 5667 5670
5727 5725 5723 5720 5717 5714 5711 5707 5703 5699 5695 5691 5687 5682 5677 5672 5666 5661 5657 5653 5649 5647 5644 5642 5639 5637 5636 5634 5632 5631 5630 5630 5630 5630 5632 5634 5636 5639 5641 5643 5647 5650 5652 5656
5722 5720 5717 5715 5712 5709 5705 5702 5698 5694 5689 5685 5681 5676 5673 5666 5661 5656 5651 5647 5643 5640 5637 5634 5632 5629 5627 5624 5622 5620 5619 5618 5618 5619 5619 5621 5623 5626 5628 5630 5633 5636 5639 5642
5716 5714 5711 5709 5706 5703 5699 5696 5693 5689 5684 5681 5676 5671 5666 5661 5656 5650 5646 5642 5638 5634 5631 5627 5624 5622 5619 5616 5613 5611 5609 5608 5607 5607 5606 5608 5610 5612 5614 5617 5620 5623 5626 5629
5710 5708 5705 5703 5700 5698 5694 5691 5687 5683 5679 5675 5671 5666 5662 5656 5651 5645 5641 5637 5633 5628 5625 5621 5618 5614 5611 5608 5605 5601 5599 5598 5597 5596 5595 5596 5597 5599 5602 5605 5608 5610 5613 5616
5703 5702 5700 5697 5694 5692 5689 5686 5682 5677 5673 5669 5665 5661 5658 5652 5646 5641 5637 5633 5628 5624 5620 5616 5612 5608 5604 5601 5597 5593 5591 5588 5587 5586 5585 5585 5585 5587 5590 5593 5596 5598 5601 5604
5696 5695 5693 5691 5688 5686 5683 5680 5676 5672 5667 5663 5660 5656 5652 5647 5642 5637 5633 5628 5624 5619 5615 5611 5606 5602 5598 5594 5590 5586 5583 5580 5578 5577 5575 5575 5575 5576 5578 5581 5583 5585 5588 5590
5689 5688 5687 5684 5682 5680 5677 5674 5670 5666 5661 5657 5654 5651 5647 5642 5638 5633 5628 5624 5619 5615 5610 5606 5601 5597 5592 5588 5583 5579 5575 5573 5570 5567 5565 5565 5565 5566 5567 5569 5571 5573 5575 5578
5681 5681 5679 5678 5675 5673 5671 5668 5663 5660 5656 5652 5647 5648 5642 5637 5632 5628 5623 5618 5614 5610 5605 5601 5596 5592 5587 5582 5578 5573 5569 5565 5561 5558 5557 5556 5556 5557 5558 5559 5561 5562 5565 5567
5673 5673 5671 5670 5668 5666 5664 5661 5658 5655 5650 5646 5642 5643 5636 5631 5626 5622 5618 5614 5609 5605 5601 5596 5591 5587 5582 5578 5572 5568 5563 5558 5554 5551 5549 5549 5548 5549 5549 5550 5551 5553 5555 5557
5665 5665 5664 5663 5663 5660 5657 5654 5651 5648 5644 5640 5637 5638 5630 5626 5621 5618 5613 5609 5605 5601 5596 5591 5587 5582 5577 5573 5567 5563 5557 5552 5548 5545 5543 5542 5541 5541 5541 5542 5543 5544 5546 5548
5656 5656 5656 5656 5653 5651 5649 5647 5644 5640 5637 5634 5631 5629 5625 5620 5616 5612 5608 5604 5600 5595 5591 5586 5582 5577 5572 5567 5562 5557 5553 5547 5543 5540 5537 5536 5535 5534 5534 5534 5534 5535 5537 5539
5647 5647 5647 5646 5645 5643 5641 5640 5636 5633 5630 5627 5625 5621 5618 5614 5610 5606 5602 5599 5595 5590 5586 5581 5577 5572 5567 5563 5558 5553 5548 5543 5539 5536 5533 5530 5529 5528 5527 5527 5527 5528 5529 5531
5637 5638 5638 5638 5636 5634 5633 5632 5629 5626 5623 5620 5617 5615 5612 5608 5604 5600 5597 5593 5589 5585 5581 5576 5571 5567 5562 5558 5553 5549 5544 5539 5534 5531 5527 5525 5523 5521 5521 5520 5520 5520 5522 5524
5628 5628 5628 5628 5627 5625 5625 5625 5622 5619 5616 5613 5610 5609 5605 5601 5598 5594 5590 5587 5583 5579 5575 5571 5566 5561 5557 5553 5548 5544 5539 5534 5529 5526 5523 5520 5517 5516 5514 5514 5514 5514 5515 5516
5618 5618 5617 5618 5618 5616 5620 5616 5614 5611 5609 5605 5602 5600 5597 5594 5591 5588 5584 5580 5576 5573 5569 5564 5560 5556 5551 5547 5542 5538 5534 5529 5525 5521 5518 5515 5513 5511 5509 5508 5507 5507 5508 5509
5608 5608 5608 5607 5606 5606 5609 5607 5604 5602 5600 5598 5594 5592 5589 5586 5585 5582 5578 5573 5569 5565 5562 5557 5553 5549 5545 5541 5536 5532 5528 5524 5520 5517 5513 5510 5507 5506 5504 5503 5502 5501 5502 5503
5598 5598 5599 5597 5596 5596 5600 5598 5594 5593 5591 5590 5586 5584 5581 5578 5577 5575 5570 5566 5562 5558 5554 5550 5547 5543 5538 5534 5530 5525 5521 5518 5514 5511 5508 5505 5502 5500 5499 5498 5497 5496 5497 5497
5587 5588 5588 5587 5586 5587 5589 5587 5585 5584 5583 5580 5577 5575 5573 5570 5568 5565 5562 5558 5554 5551 5547 5543 5539 5535 5530 5526 5522 5518 5514 5511 5507 5504 5501 5499 5496 5495 5493 5492 5492 5491 5492 5492
5576 5577 5578 5578 5576 5580 5579 5576 5575 5574 5572 5570 5568 5566 5564 5562 5559 5556 5553 5550 5546 5543 5539 5534 5530 5527 5522 5518 5515 5511 5507 5504 5501 5498 5495 5492 5490 5489 5488 5487 5486 5486 5486 5486
5565 5568 5568 5568 5570 5569 5568 5566 5565 5563 5562 5560 5558 5557 5555 5553 5550 5548 5544 5541 5537 5534 5530 5526 5522 5518 5514 5510 5506 5503 5500 5496 5494 5491 5488 5486 5484 5483 5482 5481 5481 5481 5480 5481
5555 5556 5556 5557 5559 5558 5557 5556 5554 5553 5551 5550 5548 5547 5545 5543 5541 5538 5535 5532 5528 5524 5520 5516 5512 5509 5505 5501 5498 5495 5492 5489 5486 5484 5481 5479 5478 5477 5476 5475 5475 5475 5475 5475
5544 5544 5545 5546 5548 5547 5547 5545 5544 5542 5541 5540 5538 5537 5535 5533 5531 5528 5525 5522 5518 5515 5511 5507 5503 5499 5496 5492 5489 5486 5483 5480 5478 5476 5474 5472 5471 5470 5470 5469 5469 5469 5469 5469
5533 5534 5535 5535 5536 5535 5536 5534 5533 5532 5531 5530 5528 5527 5525 5522 5520 5518 5515 5512 5508 5505 5501 5497 5493 5490 5487 5483 5480 5476 5474 5471 5470 5468 5467 5465 5464 5463 5463 5463 5463 5462 5463 5463